Weather History for Wright-Patt AFB, OH

Change the Weather History Date:

Friday, December 21, 2012

  Actual Average Record
Temperature  
Mean Temperature 30 °F -  
Max Temperature 32 °F 35 °F 66 °F (2013)
Min Temperature 28 °F 20 °F 1 °F (2008)
Degree Days  
Heating Degree Days 35    
Moisture  
Dew Point 23 °F    
Average Humidity 74    
Maximum Humidity 80    
Minimum Humidity 69    
Precipitation  
Precipitation 0.08 in - - ()
Snow  
Snow 0.00 in - - ()
Snow Depth 1.00 in    
Sea Level Pressure  
Sea Level Pressure 29.68 in    
Wind  
Wind Speed 25 mph (WSW)    
Max Wind Speed 33 mph    
Max Gust Speed 41 mph    
Visibility 5 miles    
Events Snow    
Averages and records for this station are not official NWS values.
T = Trace of Precipitation, MM = Missing Value Source: NWS Daily Summary

Daily Weather History Graph

Daily Weather History Graph

Search for Another Location

Airport:

Trip Planner

Search our weather history database for the weather conditions in past years. The results will help you decide how hot, cold, wet, or windy it might be!

Date:

Astronomy

Dec. 21, 2012 Rise Set
Actual Time 7:54 AM EST 5:14 PM EST
Civil Twilight 7:23 AM EST 5:45 PM EST
Nautical Twilight 6:49 AM EST 6:19 PM EST
Astronomical Twilight 6:16 AM EST 6:52 PM EST
Moon 1:01 PM EST (12/21) 1:40 AM EST (12/21)
Length of Visible Light 10h 21m
Length of Day
9h 20m
Waxing Gibbous, 64% of the Moon is Illuminated
Dec 21
Waxing Gibbous
Dec 28
Full
Jan 4
Last Quarter
Jan 11
New
Jan 18
First Quarter

Hourly Weather History & Observations

Time (EST) Temp. Windchill Dew Point Humidity Pressure Visibility Wind Dir Wind Speed Gust Speed Precip Events Conditions
12:50 AM 32.0 °F 18.1 °F 23.0 °F 69% 29.44 in 10.0 mi SW 27.6 mph 41.4 mph N/A Snow Light Snow
12:55 AM 32.2 °F 17.9 °F 23.0 °F 69% 29.44 in 10.0 mi SSW 29.9 mph 41.4 mph 0.00 in Snow Light Snow
1:55 AM 32.0 °F 17.4 °F 23.7 °F 71% 29.45 in 10.0 mi SW 31.1 mph 38.0 mph 0.00 in Snow Light Snow
2:55 AM 31.6 °F 17.6 °F 23.2 °F 71% 29.47 in 10.0 mi SW 27.6 mph 40.3 mph 0.00 in Snow Light Snow
3:55 AM 30.4 °F 17.3 °F 23.5 °F 76% 29.48 in 3.0 mi SW 21.9 mph 36.8 mph 0.00 in Snow Light Snow
4:55 AM 29.7 °F 13.8 °F 22.5 °F 75% 29.47 in 7.0 mi SW 33.4 mph 38.0 mph 0.00 in Snow Light Snow
5:07 AM 28.4 °F 13.3 °F 23.0 °F 80% 29.48 in 1.5 mi SW 27.6 mph 41.4 mph N/A Snow Light Snow
5:55 AM 28.8 °F 14.0 °F 22.5 °F 77% 29.50 in 6.0 mi SW 26.5 mph 35.7 mph 0.00 in Snow Light Snow
6:48 AM 28.4 °F 13.8 °F 23.0 °F 80% 29.52 in 2.0 mi SW 25.3 mph 31.1 mph N/A Snow Light Snow
6:55 AM 28.9 °F 15.1 °F 23.2 °F 79% 29.53 in 2.0 mi WSW 23.0 mph 32.2 mph 0.00 in Snow Light Snow
7:07 AM 28.4 °F 13.5 °F 23.0 °F 80% 29.53 in 1.5 mi WSW 26.5 mph 38.0 mph N/A Snow Light Snow
7:11 AM 28.4 °F 14.1 °F 23.0 °F 80% 29.53 in 1.2 mi WSW 24.2 mph 29.9 mph N/A Snow Light Snow
7:27 AM 28.4 °F 14.1 °F 23.0 °F 80% 29.54 in 2.0 mi WSW 24.2 mph 32.2 mph N/A Snow Light Snow
7:55 AM 29.1 °F 15.1 °F 23.2 °F 78% 29.55 in 2.0 mi WSW 24.2 mph 39.1 mph 0.00 in Snow Light Snow
8:55 AM 29.3 °F 14.7 °F 23.2 °F 78% 29.58 in 3.0 mi WSW 26.5 mph 38.0 mph 0.00 in Snow Light Snow
9:29 AM 30.2 °F 17.1 °F 23.0 °F 75% 29.61 in 3.0 mi WSW 21.9 mph 35.7 mph N/A Snow Light Snow
9:57 AM 29.8 °F 15.5 °F 23.4 °F 77% 29.62 in 3.0 mi WSW 26.5 mph 34.5 mph 0.03 in Snow Light Snow
10:55 AM 30.0 °F 17.2 °F 22.3 °F 73% 29.66 in 4.0 mi WSW 20.7 mph 34.5 mph 0.01 in Snow Light Snow
11:14 AM 30.2 °F 15.7 °F 21.2 °F 69% 29.66 in 4.0 mi West 27.6 mph 36.8 mph N/A Snow Light Snow
11:55 AM 30.9 °F 18.1 °F 21.9 °F 69% 29.67 in 4.0 mi West 21.9 mph 35.7 mph 0.01 in Snow Light Snow
12:44 PM 32.0 °F 19.2 °F 23.0 °F 69% 29.68 in 4.0 mi West 23.0 mph 41.4 mph N/A Snow Light Snow
12:55 PM 31.5 °F 17.9 °F 22.5 °F 69% 29.69 in 4.0 mi West 25.3 mph 33.4 mph 0.01 in Snow Light Snow
1:55 PM 31.1 °F 17.2 °F 22.5 °F 70% 29.71 in 4.0 mi West 26.5 mph 38.0 mph 0.00 in Snow Light Snow
2:00 PM 32.0 °F 18.4 °F 23.0 °F 69% 29.68 in 4.0 mi West 26.5 mph 36.8 mph N/A Snow Light Snow
2:04 PM 30.2 °F 16.5 °F 23.0 °F 75% 29.71 in 4.0 mi West 24.2 mph 36.8 mph N/A Snow Light Snow
2:09 PM 30.2 °F 16.2 °F 23.0 °F 75% 29.72 in 4.0 mi West 25.3 mph 36.8 mph N/A Snow Light Snow
2:44 PM 30.2 °F 18.5 °F 21.2 °F 69% 29.74 in 2.5 mi West 17.3 mph 35.7 mph N/A Snow Light Snow
2:55 PM 30.0 °F 16.9 °F 22.1 °F 72% 29.74 in 2.5 mi WSW 21.9 mph 34.5 mph 0.01 in Snow Light Snow
3:03 PM 30.2 °F 17.1 °F 23.0 °F 75% 29.75 in 2.5 mi West 21.9 mph 34.5 mph N/A Snow Light Snow
3:13 PM 30.2 °F 16.5 °F 23.0 °F 75% 29.75 in 1.5 mi WSW 24.2 mph 34.5 mph N/A Snow Light Snow
3:55 PM 29.5 °F 15.5 °F 22.6 °F 76% 29.78 in 2.0 mi West 24.2 mph 33.4 mph 0.01 in Snow Light Snow
4:55 PM 30.2 °F 17.4 °F 22.3 °F 72% 29.81 in 7.0 mi West 20.7 mph 34.5 mph 0.00 in Snow Light Snow
5:55 PM 29.3 °F 15.6 °F 22.3 °F 75% 29.86 in 5.0 mi West 23.0 mph 35.7 mph 0.00 in Snow Light Snow
6:43 PM 30.2 °F 16.8 °F 21.2 °F 69% 29.90 in 10.0 mi West 23.0 mph 33.4 mph N/A   Overcast
6:55 PM 29.3 °F 16.2 °F 21.9 °F 74% 29.91 in 10.0 mi West 20.7 mph 33.4 mph 0.00 in   Overcast
7:55 PM 29.7 °F 16.4 °F 22.1 °F 73% 29.93 in 10.0 mi West 21.9 mph 32.2 mph N/A   Overcast
8:55 PM 29.8 °F 17.7 °F 21.7 °F 72% 29.96 in 10.0 mi West 18.4 mph 32.2 mph N/A   Overcast
9:55 PM 29.7 °F 17.8 °F 21.6 °F 72% 29.98 in 10.0 mi West 17.3 mph 29.9 mph N/A   Mostly Cloudy
10:55 PM 29.5 °F 17.6 °F 21.4 °F 72% 30.00 in 10.0 mi West 17.3 mph 26.5 mph N/A   Overcast
11:55 PM 29.7 °F 17.4 °F 21.2 °F 71% 30.03 in 10.0 mi West 18.4 mph 25.3 mph N/A   Overcast